1532775600.88,16531,21.56,74098.8,11.43,9.35,9.21,0,*4F
1532775602.09,16532,21.56,74096.0,11.41,9.47,9.29,0,*43
1532775603.3,16533,21.56,74096.5,11.41,9.43,9.21,0,*4E
1532775604.53,16534,21.63,74100.8,11.41,9.01,8.79,0,*43
1532775605.77,16535,21.56,74096.0,11.41,9.77,9.47,0,*4F
1532775606.99,16536,21.63,74096.8,11.39,9.75,9.53,0,*44
1532775608.2,16537,21.56,74096.3,11.41,9.47,9.29,0,*46
1532775609.4,16538,21.63,74098.8,11.41,9.63,9.47,0,*47
1532775610.66,16539,21.63,74100.0,11.41,9.57,9.35,0,*44
1532775611.9,16540,21.56,74096.0,11.39,9.11,9.01,0,*40
1532775613.11,16541,21.63,74100.8,11.39,9.35,9.29,0,*4D
1532775614.3,16542,21.63,74102.3,11.39,9.43,9.29,0,*4F
1532775615.52,16543,21.63,74102.5,11.37,9.43,9.33,0,*4B
1532775616.75,16544,21.63,74100.8,11.37,9.39,9.29,0,*4A
1532775617.99,16545,21.63,74102.8,11.37,9.81,9.63,0,*46
1532775619.24,16546,21.63,74100.8,11.37,10.05,9.85,0,*79
1532775620.49,16547,21.63,74098.5,11.41,10.19,10.03,0,*42
1532775621.72,16548,21.63,74100.8,11.41,9.89,9.75,0,*45
1532775622.95,16549,21.56,74096.8,11.39,9.85,9.67,0,*44
1532775624.18,16550,21.63,74100.0,11.41,9.99,9.85,0,*42
1532775625.38,16551,21.63,74098.8,11.39,10.13,9.99,0,*7B
1532775626.59,16552,21.56,74098.0,11.39,9.99,9.85,0,*4F
1532775627.82,16553,21.63,74100.0,11.39,10.09,9.85,0,*7F
1532775629.05,16554,21.63,74100.5,11.41,10.03,9.85,0,*7D
1532775630.29,16555,21.56,74098.3,11.41,10.19,9.95,0,*76
1532775631.49,16556,21.63,74100.3,11.41,9.95,9.67,0,*44
1532775632.72,16557,21.63,74100.8,11.43,10.05,9.81,0,*7E
1532775633.91,16558,21.63,74098.8,11.43,9.67,9.47,0,*47
1532775635.13,16559,21.56,74096.3,11.39,9.43,9.19,0,*46
1532775636.33,16560,21.63,74100.0,11.41,9.47,9.29,0,*44
1532775637.55,16561,21.63,74100.8,11.39,9.75,9.53,0,*46
1532775638.77,16562,21.63,74100.0,11.39,10.03,9.85,0,*77
1532775639.98,16563,21.63,74100.0,11.41,9.99,9.75,0,*4D
1532775641.21,16564,21.63,74100.5,11.39,10.23,10.09,0,*4F
1532775642.47,16565,21.63,74098.5,11.41,10.31,10.13,0,*49
1532775643.69,16566,21.63,74100.8,11.39,10.09,9.85,0,*79
1532775644.93,16567,21.63,74100.3,11.41,10.03,9.85,0,*7D
1532775646.16,16568,21.63,74102.0,11.41,10.03,9.89,0,*7E
1532775647.37,16569,21.63,74100.8,11.41,9.95,9.75,0,*4B
1532775648.61,16570,21.56,74096.0,11.41,10.09,9.89,0,*7D
1532775649.87,16571,21.63,74100.5,11.41,10.33,10.19,0,*44
1532775651.13,16572,21.63,74100.5,11.41,10.41,10.23,0,*4B
1532775652.35,16573,21.63,74100.0,11.41,10.13,9.99,0,*74
1532775653.59,16574,21.63,74098.3,11.41,10.09,9.89,0,*79
1532775654.87,16575,21.63,74100.8,11.41,10.31,10.19,0,*42
1532775656.1,16576,21.56,74100.0,11.41,10.33,10.13,0,*49
1532775657.37,16577,21.63,74102.5,11.45,10.41,10.27,0,*4E
1532775658.61,16578,21.63,74102.5,11.45,10.27,10.17,0,*42
1532775659.86,16579,21.63,74100.5,11.45,10.27,10.17,0,*43
1532775661.1,16580,21.63,74102.5,11.45,10.27,10.09,0,*4A
1532775662.31,16581,21.56,74098.5,11.45,9.91,9.63,0,*4A
1532775663.52,16582,21.63,74102.5,11.43,9.67,9.49,0,*4E
1532775664.74,16583,21.56,74100.8,11.45,10.17,9.95,0,*77
1532775665.93,16584,21.63,74102.3,11.43,10.13,9.99,0,*7E
1532775667.18,16585,21.63,74100.5,11.45,10.27,10.05,0,*43
1532775668.41,16586,21.56,74100.0,11.45,10.19,9.95,0,*7C
1532775669.6,16587,21.63,74100.5,11.43,9.91,9.71,0,*49
1532775670.81,16588,21.63,74100.3,11.45,10.17,9.91,0,*78
1532775672.0,16589,21.63,74098.3,11.43,9.99,9.71,0,*4F
1532775673.25,16590,21.56,74098.3,11.45,10.05,9.81,0,*73
1532775674.44,16591,21.56,74096.8,11.43,10.13,9.91,0,*72
1532775675.64,16592,21.56,74096.8,11.43,10.17,10.03,0,*46
1532775676.88,16593,21.63,74100.0,11.45,10.09,9.85,0,*78
1532775678.12,16594,21.56,74100.0,11.45,9.85,9.63,0,*4B
1532775679.33,16595,21.63,74100.3,11.43,9.71,9.57,0,*40
1532775680.54,16596,21.63,74102.0,11.43,9.67,9.57,0,*44
1532775681.75,16597,21.56,74098.0,11.43,9.33,9.11,0,*46
1532775682.96,16598,21.56,74098.8,11.43,9.49,9.33,0,*44
1532775684.17,16599,21.63,74102.3,11.43,9.61,9.47,0,*4C
1532775685.38,16600,21.56,74096.5,11.43,9.71,9.57,0,*4F
1532775686.59,16601,21.56,74096.8,11.41,9.47,9.29,0,*40
1532775687.78,16602,21.56,74096.5,11.39,9.47,9.29,0,*4C
1532775689.02,16603,21.63,74102.3,11.39,9.77,9.57,0,*47
1532775690.24,16604,21.63,74100.5,11.39,9.67,9.53,0,*45
1532775691.43,16605,21.63,74100.8,11.39,9.63,9.43,0,*41
1532775692.64,16606,21.63,74100.3,11.39,9.67,9.53,0,*47
1532775693.85,16607,21.56,74096.5,11.41,9.95,9.75,0,*40
1532775695.07,16608,21.63,74100.3,11.39,10.09,9.89,0,*7E
1532775696.3,16609,21.63,74100.8,11.39,10.09,9.85,0,*73
1532775697.51,16610,21.56,74096.8,11.39,9.99,9.85,0,*4A
1532775698.73,16611,21.56,74098.3,11.39,9.89,9.67,0,*46
1532775699.97,16612,21.56,74096.3,11.39,9.77,9.57,0,*47
1532775701.21,16613,21.56,74100.0,11.39,9.77,9.53,0,*42
1532775702.48,16614,21.56,74100.0,11.37,9.39,9.19,0,*4F
1532775703.72,16615,21.63,74100.8,11.37,9.61,9.43,0,*4C
1532775704.97,16616,21.56,74098.0,11.37,9.71,9.49,0,*44
1532775706.21,16617,21.63,74100.3,11.37,9.75,9.53,0,*4A
1532775707.46,16618,21.63,74100.5,11.37,9.99,9.81,0,*48
1532775708.71,16619,21.56,74098.8,11.37,10.05,9.85,0,*70
1532775709.95,16620,21.56,74098.8,11.37,9.95,9.81,0,*4F
1532775711.17,16621,21.63,74102.0,11.37,9.91,9.75,0,*41
1532775712.42,16622,21.63,74102.0,11.37,10.05,9.85,0,*78
1532775713.62,16623,21.56,74098.0,11.35,10.17,10.05,0,*48
1532775714.82,16624,21.63,74100.3,11.35,10.17,9.99,0,*72
1532775716.07,16625,21.63,74100.0,11.37,10.19,10.05,0,*42
1532775717.32,16626,21.56,74098.8,11.37,10.41,10.17,0,*4F
1532775718.57,16627,21.63,74098.8,11.39,10.41,10.23,0,*47
1532775719.79,16628,21.56,74098.8,11.39,10.43,10.23,0,*4A
1532775721.02,16629,21.63,74102.8,11.39,10.19,10.03,0,*46
1532775722.25,16630,21.63,74102.5,11.39,10.23,10.03,0,*47
1532775723.49,16631,21.63,74102.0,11.41,10.23,10.09,0,*43
1532775724.75,16632,21.63,74102.3,11.41,10.31,10.09,0,*43
1532775726.0,16633,21.63,74102.3,11.41,10.31,10.13,0,*49
1532775727.23,16634,21.56,74098.8,11.39,10.19,10.03,0,*4A
1532775728.43,16635,21.56,74098.5,11.39,10.13,10.03,0,*41
1532775729.68,16636,21.56,74100.0,11.41,10.19,10.03,0,*47
1532775730.88,16637,21.63,74102.3,11.39,10.13,9.99,0,*78
1532775732.12,16638,21.56,74102.0,11.41,10.19,10.09,0,*43
1532775733.36,16639,21.56,74098.0,11.41,10.03,9.89,0,*79
1532775734.59,16640,21.56,74098.8,11.41,10.03,9.85,0,*7B
1532775735.81,16641,21.63,74100.0,11.41,10.09,9.95,0,*71
1532775737.05,16642,21.63,74102.3,11.41,10.03,9.89,0,*75
1532775738.26,16643,21.56,74098.5,11.39,10.03,9.85,0,*77
1532775739.47,16644,21.56,74098.8,11.41,9.95,9.75,0,*47
1532775740.71,16645,21.56,74098.3,11.41,10.03,9.85,0,*7E
1532775741.95,16646,21.56,74098.5,11.41,10.19,9.99,0,*7B
1532775743.18,16647,21.56,74100.8,11.41,9.89,9.67,0,*4A
1532775744.42,16648,21.63,74100.5,11.41,9.89,9.67,0,*45
1532775745.66,16649,21.56,74100.0,11.41,10.03,9.85,0,*72
1532775746.85,16650,21.56,74098.8,11.39,10.13,9.99,0,*79
1532775748.12,16651,21.56,74096.3,11.41,10.41,10.19,0,*40
1532775749.32,16652,21.63,74102.3,11.43,10.55,10.33,0,*4C
1532775750.54,16653,21.56,74100.0,11.43,10.23,10.05,0,*49
1532775751.75,16654,21.56,74098.0,11.41,9.95,9.75,0,*46
1532775752.98,16655,21.56,74100.0,11.41,9.53,9.47,0,*4C
1532775754.22,16656,21.56,74098.8,11.41,9.89,9.75,0,*49
1532775755.44,16657,21.56,74100.0,11.39,9.75,9.53,0,*40
1532775756.68,16658,21.56,74100.5,11.39,9.53,9.35,0,*4B
1532775757.87,16659,21.56,74096.5,11.39,9.43,9.21,0,*4E
1532775759.09,16660,21.56,74098.5,11.39,9.33,9.19,0,*48
1532775760.33,16661,21.63,74100.8,11.37,9.19,9.03,0,*44
1532775761.57,16662,21.56,74096.0,11.37,9.49,9.33,0,*41
1532775762.82,16663,21.63,74102.3,11.37,9.71,9.49,0,*46
1532775764.06,16664,21.63,74102.5,11.37,9.75,9.53,0,*4E
1532775765.25,16665,21.63,74100.3,11.35,9.91,9.75,0,*43
1532775766.52,16666,21.56,74098.3,11.37,9.81,9.61,0,*46
1532775767.8,16667,21.63,74102.5,11.37,9.81,9.49,0,*4D
1532775769.01,16668,21.63,74102.3,11.37,9.99,9.75,0,*44
1532775770.21,16669,21.63,74100.5,11.35,10.05,9.91,0,*70
1532775771.43,16670,21.56,74102.8,11.37,10.09,9.95,0,*72
1532775772.63,16671,21.56,74102.5,11.35,10.17,9.95,0,*7E
1532775773.85,16672,21.56,74098.8,11.37,10.17,9.99,0,*73
1532775775.07,16673,21.56,74102.3,11.37,10.09,9.95,0,*71
1532775776.3,16674,21.56,74100.5,11.37,10.17,9.99,0,*75
1532775777.53,16675,21.63,74102.3,11.37,10.17,10.09,0,*45
1532775778.76,16676,21.56,74100.0,11.37,10.17,10.05,0,*4A
1532775779.98,16677,21.56,74100.0,11.37,10.17,9.99,0,*76
1532775781.24,16678,21.56,74098.0,11.37,10.19,10.05,0,*4A
1532775782.49,16679,21.56,74098.3,11.37,10.27,10.09,0,*4A
1532775783.75,16680,21.56,74098.5,11.37,10.31,10.09,0,*4B
1532775785.0,16681,21.56,74098.8,11.37,10.27,10.09,0,*4D
1532775786.26,16682,21.63,74100.0,11.37,10.31,10.17,0,*46
1532775787.5,16683,21.63,74100.5,11.37,10.19,9.99,0,*73
1532775788.76,16684,21.56,74100.3,11.37,10.31,10.17,0,*40
1532775789.99,16685,21.63,74100.3,11.39,10.31,10.13,0,*4B
1532775791.2,16686,21.56,74098.8,11.39,10.13,10.03,0,*49
1532775792.42,16687,21.56,74100.5,11.39,10.03,9.85,0,*7F
1532775793.63,16688,21.56,74096.5,11.39,9.89,9.33,0,*47
1532775794.86,16689,21.56,74102.0,11.39,10.71,10.09,0,*48
1532775796.12,16690,21.56,74100.5,11.37,8.75,8.47,0,*40
1532775797.34,16691,21.56,74098.5,11.37,9.99,9.91,0,*48
1532775798.59,16692,21.63,74100.5,11.37,10.47,10.31,0,*42
1532775799.78,16693,21.63,74100.5,11.35,9.29,9.43,0,*4C
1532775801.02,16694,21.56,74100.3,11.35,10.41,10.41,0,*47
1532775802.25,16695,21.56,74100.5,11.35,10.69,10.83,0,*42
1532775803.5,16696,21.56,74100.5,11.37,10.71,10.85,0,*4C
1532775804.74,16697,21.56,74102.3,11.37,10.47,10.61,0,*42
1532775806.01,16698,21.56,74102.5,11.37,10.27,10.41,0,*49
1532775807.25,16699,21.63,74100.0,11.35,10.31,10.47,0,*4B
1532775808.49,16700,21.63,74102.3,11.35,10.19,10.41,0,*46
1532775809.73,16701,21.63,74100.0,11.35,10.41,10.61,0,*48
1532775810.96,16702,21.63,74100.0,11.35,10.69,10.83,0,*4D
1532775812.21,16703,21.63,74102.3,11.35,10.71,10.95,0,*42
1532775813.46,16704,21.56,74100.8,11.37,10.71,10.85,0,*46
1532775814.69,16705,21.63,74102.3,11.35,10.69,10.83,0,*4A
1532775815.91,16706,21.56,74100.0,11.35,10.37,10.51,0,*4D
1532775817.13,16707,21.56,74096.8,11.35,10.37,10.51,0,*4C
1532775818.38,16708,21.56,74102.0,11.37,10.17,10.27,0,*42
1532775819.63,16709,21.56,74098.8,11.35,10.41,10.61,0,*40
1532775820.88,16710,21.56,74102.8,11.35,10.71,10.75,0,*4E
1532775822.1,16711,21.56,74102.5,11.35,10.41,10.47,0,*4D
1532775823.33,16712,21.56,74100.3,11.35,10.09,10.27,0,*44
1532775824.57,16713,21.56,74102.5,11.31,9.71,9.89,0,*4A
1532775825.8,16714,21.63,74102.5,11.31,9.57,9.71,0,*4E
1532775827.05,16715,21.56,74100.5,11.31,9.71,9.89,0,*4C
1532775828.28,16716,21.56,74100.8,11.29,10.13,10.31,0,*41
1532775829.53,16717,21.63,74104.0,11.29,10.19,10.31,0,*4A
1532775830.75,16718,21.56,74102.3,11.29,10.41,10.51,0,*4E
1532775831.97,16719,21.63,74102.5,11.29,10.51,10.61,0,*4D
1532775833.17,16720,21.56,74102.0,11.29,10.33,10.43,0,*43
1532775834.41,16721,21.63,74102.3,11.29,10.41,10.61,0,*47
1532775835.62,16722,21.63,74102.0,11.29,10.41,10.55,0,*43
1532775836.84,16723,21.56,74098.3,11.29,10.51,10.61,0,*44
1532775838.07,16724,21.63,74102.3,11.29,10.69,10.75,0,*4D
1532775839.32,16725,21.63,74102.0,11.29,10.71,10.75,0,*45
1532775840.53,16726,21.63,74102.8,11.29,10.41,10.55,0,*47
1532775841.76,16727,21.63,74100.5,11.29,10.03,10.19,0,*48
1532775843.03,16728,21.56,74102.3,11.27,8.89,9.01,0,*43
1532775844.21,16729,21.56,74100.0,11.25,9.75,9.75,0,*41
1532775845.39,16730,21.56,74100.0,11.25,9.99,9.99,0,*49
1532775846.63,16731,21.63,74104.0,11.25,9.89,9.89,0,*48
1532775847.85,16732,21.56,74100.8,11.21,9.67,9.77,0,*4E
1532775849.04,16733,21.63,74102.0,11.21,9.91,9.91,0,*4E
1532775850.27,16734,21.56,74102.3,11.23,10.05,10.05,0,*4B
1532775851.47,16735,21.63,74100.8,11.21,9.95,10.03,0,*7F
1532775852.66,16736,21.63,74100.5,11.21,9.91,9.95,0,*4F
1532775853.94,16737,21.56,74102.5,11.19,10.19,10.19,0,*41
1532775855.14,16738,21.56,74098.8,11.21,10.05,10.05,0,*45
1532775856.37,16739,21.56,74098.3,11.19,10.03,10.03,0,*4F
1532775857.63,16740,21.56,74098.0,11.19,10.31,10.33,0,*43
1532775858.88,16741,21.56,74102.5,11.21,10.37,10.37,0,*4B
1532775860.09,16742,21.56,74102.3,11.17,10.47,10.41,0,*4B
1532775861.34,16743,21.63,74102.5,11.19,10.41,10.47,0,*44
1532775862.58,16744,21.56,74100.8,11.17,10.41,10.37,0,*4A
1532775863.8,16745,21.56,74098.8,11.19,10.43,10.43,0,*44
1532775865.01,16746,21.56,74096.8,11.21,10.33,10.33,0,*4C
1532775866.23,16747,21.63,74106.0,11.19,10.51,10.51,0,*46
1532775867.51,16748,21.56,74102.8,11.19,10.41,10.41,0,*49
1532775868.77,16749,21.56,74102.8,11.19,10.31,10.33,0,*4A
1532775870.0,16750,21.56,74100.3,11.17,10.41,10.41,0,*4E
1532775871.23,16751,21.56,74100.8,11.21,10.27,10.33,0,*4F
1532775872.52,16752,21.56,74100.5,11.19,10.23,10.23,0,*42
1532775873.72,16753,21.56,74100.0,11.17,10.05,10.05,0,*4D
1532775874.93,16754,21.56,74100.5,11.17,10.05,10.05,0,*4A
1532775876.18,16755,21.56,74100.5,11.17,10.19,10.27,0,*46
1532775877.38,16756,21.56,74100.0,11.17,10.47,10.47,0,*48
1532775878.62,16757,21.56,74100.8,11.17,10.41,10.41,0,*49
1532775879.87,16758,21.56,74100.0,11.19,10.41,10.47,0,*4E
1532775881.09,16759,21.63,74102.0,11.19,10.43,10.51,0,*4A
1532775882.33,16760,21.56,74100.8,11.19,10.33,10.33,0,*43
1532775883.57,16761,21.56,74100.3,11.17,10.37,10.37,0,*4C
1532775884.82,16762,21.56,74100.3,11.19,10.19,10.13,0,*4B
1532775886.06,16763,21.56,74100.8,11.17,10.17,10.19,0,*40
1532775887.31,16764,21.56,74100.0,11.17,10.27,10.31,0,*4E
1532775888.57,16765,21.56,74102.3,11.17,10.31,10.31,0,*48
1532775889.84,16766,21.56,74100.0,11.15,10.37,10.41,0,*48
1532775891.06,16767,21.56,74100.5,11.15,10.47,10.47,0,*48
1532775892.29,16768,21.56,74102.3,11.15,10.47,10.47,0,*47
1532775893.57,16769,21.63,74100.3,11.15,10.27,10.31,0,*41
1532775894.83,16770,21.63,74102.5,11.15,10.17,10.19,0,*40
1532775896.03,16771,21.63,74102.3,11.13,10.03,10.03,0,*49
1532775897.24,16772,21.56,74102.0,11.15,9.71,9.71,0,*4C
1532775898.47,16773,21.56,74100.5,11.15,10.05,10.09,0,*41
1532775899.69,16774,21.63,74104.3,11.13,9.75,9.89,0,*4F
1532775900.92,16775,21.56,74102.5,11.11,10.05,10.13,0,*48
1532775902.15,16776,21.56,74102.8,11.11,10.05,10.05,0,*4C
1532775903.37,16777,21.56,74102.3,11.11,7.55,7.79,0,*43
1532775904.61,16778,21.56,74102.0,11.11,9.29,9.35,0,*4F
1532775905.84,16779,21.56,74102.5,11.11,10.05,10.17,0,*40
1532775907.05,16780,21.63,74100.3,11.11,9.91,9.95,0,*41
1532775908.29,16781,21.56,74102.5,11.11,9.71,9.61,0,*45
1532775909.53,16782,21.56,74102.5,11.07,9.89,9.91,0,*49
1532775910.78,16783,21.56,74100.0,11.07,9.81,9.91,0,*40
1532775912.04,16784,21.56,74102.5,11.07,9.89,9.89,0,*46
1532775913.28,16785,21.56,74100.5,11.07,10.09,10.03,0,*4D
1532775914.53,16786,21.63,74104.0,11.07,10.19,10.13,0,*4E
1532775915.77,16787,21.56,74100.0,11.07,10.13,10.13,0,*45
1532775916.99,16788,21.56,74102.5,11.11,10.43,10.33,0,*4A
1532775918.23,16789,21.56,74102.5,11.07,10.13,10.13,0,*4B
1532775919.46,16790,21.56,74102.5,11.11,10.13,10.13,0,*44
1532775920.69,16791,21.56,74102.8,11.11,10.17,10.17,0,*45
1532775921.91,16792,21.56,74102.5,11.11,9.91,9.91,0,*46
1532775923.13,16793,21.63,74102.0,11.07,9.99,9.91,0,*48
1532775924.33,16794,21.63,74102.5,11.11,9.95,9.95,0,*40
1532775925.6,16795,21.56,74100.0,11.11,9.85,9.85,0,*41
1532775926.87,16796,21.56,74100.0,11.07,9.89,9.89,0,*45
1532775928.11,16797,21.56,74102.3,11.07,9.91,9.89,0,*4D
1532775929.38,16798,21.63,74102.8,11.07,9.89,9.81,0,*43
1532775930.6,16799,21.56,74100.3,11.07,9.91,9.91,0,*4A
1532775931.87,16800,21.63,74102.3,11.07,9.77,9.77,0,*45
1532775933.1,16801,21.56,74102.3,11.07,9.63,9.57,0,*43
1532775934.32,16802,21.56,74098.8,11.05,9.67,9.61,0,*43
1532775935.5,16803,21.63,74104.8,11.05,9.63,9.63,0,*44
1532775936.75,16804,21.56,74100.3,11.05,9.85,9.85,0,*43
1532775937.99,16805,21.56,74102.0,11.05,9.77,9.77,0,*42
1532775939.19,16806,21.56,74100.8,11.05,9.43,9.43,0,*41
1532775940.45,16807,21.56,74100.8,11.03,9.11,9.11,0,*46
1532775941.66,16808,21.56,74100.0,11.03,9.75,9.75,0,*49
1532775942.89,16809,21.63,74106.8,11.03,9.99,10.09,0,*79
1532775944.1,16810,21.56,74102.5,11.03,9.99,9.99,0,*40
1532775945.31,16811,21.56,74102.8,11.03,9.95,9.95,0,*41
1532775946.54,16812,21.63,74104.5,11.01,10.17,10.23,0,*47
1532775947.8,16813,21.56,74100.8,11.03,10.17,10.19,0,*4D
1532775949.0,16814,21.56,74102.5,11.01,10.17,10.05,0,*45
1532775950.28,16815,21.56,74102.8,11.03,10.19,10.27,0,*48
1532775951.51,16816,21.63,74106.5,11.03,10.17,10.09,0,*49
1532775952.73,16817,21.63,74106.0,11.03,10.05,9.99,0,*7A
1532775953.96,16818,21.56,74100.8,11.03,10.09,10.09,0,*48
1532775955.16,16819,21.56,74102.5,11.01,10.05,10.05,0,*4B
1532775956.36,16820,21.56,74102.0,11.01,10.17,10.17,0,*41
1532775957.63,16821,21.56,74102.3,11.03,10.37,10.37,0,*42
1532775958.84,16822,21.63,74106.0,11.01,10.33,10.33,0,*43
1532775960.08,16823,21.56,74102.0,11.05,10.37,10.37,0,*46
1532775961.35,16824,21.56,74102.3,11.03,10.37,10.37,0,*47
1532775962.63,16825,21.56,74102.8,11.03,10.31,10.31,0,*46
1532775963.89,16826,21.56,74102.3,11.05,10.19,10.19,0,*43
1532775965.12,16827,21.56,74102.5,11.03,10.17,10.17,0,*44
1532775966.36,16828,21.56,74102.0,11.03,9.99,9.89,0,*4A
1532775967.59,16829,21.56,74104.3,11.05,10.17,10.19,0,*42
1532775968.84,16830,21.56,74102.5,11.03,10.19,10.17,0,*4C
1532775970.02,16831,21.63,74104.0,11.01,9.63,9.63,0,*41
1532775971.3,16832,21.56,74102.5,11.03,10.27,10.27,0,*40
1532775972.52,16833,21.56,74102.3,11.03,9.07,9.21,0,*45
1532775973.75,16834,21.56,74100.3,11.03,9.95,9.89,0,*4B
1532775975.02,16835,21.63,74104.3,11.03,10.37,10.37,0,*47
1532775976.25,16836,21.56,74102.5,10.99,10.33,10.37,0,*42
1532775977.52,16837,21.56,74102.3,11.03,10.41,10.37,0,*44
1532775978.78,16838,21.56,74104.0,11.05,10.19,10.19,0,*4C
1532775980.04,16839,21.56,74100.8,11.03,10.37,10.37,0,*4B
1532775981.25,16840,21.56,74100.8,11.01,10.17,10.13,0,*43
1532775982.45,16841,21.56,74100.3,11.01,10.05,10.05,0,*46
1532775983.68,16842,21.56,74104.0,11.01,10.33,10.27,0,*40
1532775984.89,16843,21.56,74100.3,11.01,10.13,10.13,0,*44
1532775986.15,16844,21.56,74104.3,11.03,10.41,10.37,0,*40
1532775987.39,16845,21.56,74102.8,11.01,10.37,10.37,0,*42
1532775988.58,16846,21.56,74104.0,11.01,10.47,10.51,0,*46
1532775989.77,16847,21.63,74104.0,11.01,10.51,10.51,0,*40
1532775991.01,16848,21.56,74100.8,11.01,8.89,8.97,0,*40
1532775992.27,16849,21.56,74102.3,11.03,10.37,10.37,0,*4C
1532775993.52,16850,21.56,74104.5,11.03,10.55,10.61,0,*43
1532775994.79,16851,21.56,74104.0,11.03,10.65,10.75,0,*44
1532775996.06,16852,21.56,74104.5,11.03,10.65,10.75,0,*47
1532775997.31,16853,21.56,74104.5,11.03,10.83,10.85,0,*41
1532775998.56,16854,21.56,74106.5,11.05,10.71,10.75,0,*42
1532775999.77,16855,21.56,74100.3,11.05,9.89,9.95,0,*4A
1532776001.02,16856,21.56,74100.8,11.03,10.65,10.55,0,*41
1532776002.27,16857,21.56,74100.8,11.05,10.71,10.75,0,*41
1532776003.52,16858,21.56,74100.0,11.05,10.83,10.75,0,*43
1532776004.77,16859,21.56,74106.5,11.03,10.51,10.61,0,*4E
1532776005.99,16860,21.56,74102.8,11.05,10.51,10.61,0,*42
1532776007.24,16861,21.56,74102.5,11.05,10.65,10.75,0,*41
1532776008.51,16862,21.56,74100.0,11.03,10.61,10.71,0,*44
1532776009.73,16863,21.56,74102.8,11.03,10.51,10.43,0,*47
1532776010.95,16864,21.56,74104.0,11.03,10.43,10.43,0,*43
1532776012.17,16865,21.56,74100.0,11.03,10.05,9.95,0,*73
1532776013.42,16866,21.56,74102.5,11.05,10.65,10.71,0,*42
1532776014.67,16867,21.56,74106.0,11.05,10.65,10.75,0,*47
1532776015.92,16868,21.63,74104.0,11.05,10.75,10.83,0,*40
1532776017.15,16869,21.63,74104.0,11.05,10.85,10.83,0,*4E
1532776018.35,16870,21.63,74104.8,11.05,10.93,10.93,0,*40
1532776019.6,16871,21.56,74102.5,11.05,10.95,10.95,0,*41
1532776020.8,16872,21.56,74102.3,11.05,10.93,10.93,0,*42
1532776022.08,16873,21.56,74100.3,11.07,10.99,10.99,0,*41
1532776023.35,16874,21.56,74102.8,11.07,10.99,10.99,0,*46
1532776024.63,16875,21.56,74104.5,11.07,10.95,10.99,0,*4B
1532776025.9,16876,21.56,74104.3,11.07,10.75,10.75,0,*44
1532776027.18,16877,21.56,74102.5,11.07,10.99,10.99,0,*45
1532776028.43,16878,21.56,74104.0,11.07,10.75,10.85,0,*45
1532776029.68,16879,21.63,74104.8,11.07,10.69,10.65,0,*47
1532776030.9,16880,21.56,74100.3,11.11,10.93,10.93,0,*4A
1532776032.15,16881,21.56,74100.5,11.07,10.65,10.69,0,*40
1532776033.43,16882,21.56,74102.5,11.07,10.79,10.79,0,*4F
1532776034.7,16883,21.56,74100.3,11.07,10.99,10.99,0,*4E
1532776035.95,16884,21.56,74104.8,11.11,10.89,10.83,0,*44
1532776037.18,16885,21.56,74104.5,11.11,10.47,10.47,0,*4F
1532776038.44,16886,21.56,74106.3,11.11,10.57,10.61,0,*49
1532776039.69,16887,21.56,74106.5,11.11,10.79,10.89,0,*42
1532776040.97,16888,21.63,74104.0,11.07,10.75,10.79,0,*49
1532776042.2,16889,21.56,74102.3,11.11,10.47,10.47,0,*43
1532776043.42,16890,21.56,74100.8,11.11,10.43,10.47,0,*4F
1532776044.66,16891,21.63,74106.0,11.07,10.55,10.57,0,*4F
1532776045.91,16892,21.56,74102.5,11.07,10.57,10.69,0,*43
1532776047.14,16893,21.56,74104.0,11.11,10.69,10.69,0,*48
1532776048.38,16894,21.56,74102.8,11.11,10.61,10.69,0,*47
1532776049.63,16895,21.56,74102.5,11.07,10.69,10.65,0,*45
1532776050.91,16896,21.56,74102.0,11.11,10.83,10.83,0,*4D
1532776052.15,16897,21.56,74104.3,11.11,10.79,10.89,0,*43
1532776053.43,16898,21.56,74104.0,11.11,10.71,10.71,0,*43
1532776054.68,16899,21.56,74102.5,11.07,10.57,10.55,0,*47
1532776055.95,16900,21.56,74100.8,11.07,10.57,10.57,0,*44
1532776057.19,16901,21.56,74102.0,11.11,10.61,10.69,0,*4A
1532776058.46,16902,21.56,74102.5,11.11,10.61,10.61,0,*41
1532776059.73,16903,21.56,74100.3,11.11,10.61,10.61,0,*40
1532776060.99,16904,21.56,74102.5,11.07,10.69,10.75,0,*4D
1532776062.26,16905,21.56,74102.3,11.11,10.61,10.57,0,*43
1532776063.52,16906,21.56,74106.0,11.07,10.57,10.57,0,*42
1532776064.79,16907,21.56,74102.8,11.07,10.57,10.57,0,*43
1532776066.04,16908,21.56,74100.5,11.07,10.47,10.57,0,*4D
1532776067.26,16909,21.56,74106.5,11.07,10.43,10.47,0,*49
1532776068.51,16910,21.56,74102.5,11.07,10.65,10.69,0,*49
1532776069.75,16911,21.56,74098.8,11.07,10.55,10.57,0,*46
1532776071.0,16912,21.56,74102.8,11.07,10.33,10.41,0,*42
1532776072.26,16913,21.56,74100.0,11.07,10.19,10.13,0,*4C
1532776073.47,16914,21.56,74100.8,11.05,10.13,10.09,0,*48
1532776074.7,16915,21.56,74104.0,11.05,10.17,10.27,0,*41
1532776075.91,16916,21.56,74102.3,11.05,10.05,10.09,0,*4D
1532776077.16,16917,21.56,74100.8,11.05,10.19,10.31,0,*4A
1532776078.39,16918,21.56,74100.5,11.03,10.51,10.51,0,*49
1532776079.61,16919,21.56,74104.0,11.03,10.51,10.51,0,*48
1532776080.82,16920,21.56,74104.5,11.03,10.55,10.43,0,*45
1532776082.1,16921,21.56,74100.8,11.03,10.19,10.19,0,*43
1532776083.37,16922,21.56,74104.0,11.03,10.37,10.37,0,*40
1532776084.59,16923,21.56,74102.3,11.03,10.43,10.43,0,*41
1532776085.81,16924,21.56,74100.0,11.03,10.51,10.51,0,*46
1532776087.08,16925,21.56,74104.0,11.03,10.65,10.65,0,*47
1532776088.27,16926,21.63,74104.0,11.05,10.43,10.51,0,*41
1532776089.49,16927,21.56,74102.3,11.03,10.43,10.51,0,*46
1532776090.72,16928,21.56,74102.8,11.03,10.43,10.55,0,*4D
1532776091.96,16929,21.56,74102.5,11.05,10.61,10.65,0,*49
1532776093.18,16930,21.56,74104.8,11.05,10.83,10.85,0,*43
1532776094.41,16931,21.56,74102.3,11.05,10.83,10.85,0,*42
1532776095.68,16932,21.63,74104.8,11.03,10.71,10.71,0,*41
1532776096.93,16933,21.56,74104.3,11.03,10.55,10.61,0,*47
1532776098.12,16934,21.63,74104.0,11.05,10.51,10.51,0,*41
1532776099.37,16935,21.56,74102.5,11.03,10.61,10.55,0,*41
1532776100.62,16936,21.56,74104.8,11.05,10.65,10.61,0,*47
1532776101.89,16937,21.56,74102.5,11.03,10.61,10.61,0,*44
1532776103.11,16938,21.56,74102.5,11.03,10.43,10.43,0,*4B
1532776104.33,16939,21.56,74106.0,11.05,10.55,10.61,0,*4B
1532776105.56,16940,21.56,74102.5,11.05,10.85,10.95,0,*43
1532776106.83,16941,21.56,74104.3,11.03,11.03,11.03,0,*45
1532776108.1,16942,21.56,74102.0,11.03,10.65,10.75,0,*47
1532776109.35,16943,21.56,74104.8,11.05,10.37,10.37,0,*41
1532776110.57,16944,21.56,74100.0,11.05,10.41,10.43,0,*44
1532776111.8,16945,21.56,74104.8,11.03,10.17,10.09,0,*4E
1532776113.03,16946,21.56,74104.5,11.03,10.17,10.17,0,*42
1532776114.3,16947,21.63,74104.8,11.03,10.37,10.41,0,*42
1532776115.57,16948,21.56,74100.3,11.03,10.65,10.65,0,*4C
1532776116.79,16949,21.56,74104.5,11.05,10.51,10.41,0,*4A